Regional Weather Roundup
Issued by NWS

Home | Current Version | Previous Version | Text Only | Print | Product List | Glossary Off
Versions: 1 2 3 4 5 6 7 8 9 10 11 12 13 14 15 16 17 18 19 20 21 22 23 24 25 26 27 28 29 30 31 32 33 34 35 36 37 38 39 40 41 42 43 44 45 46 47 48 49 50

000
ASUS43 KLOT 221409
RWRIL

ILLINOIS REGIONAL WEATHER ROUNDUP
NATIONAL WEATHER SERVICE CHICAGO/ROMEOVILLE IL
900 AM CDT SUN OCT 22 2017

NOTE: "FAIR" INDICATES FEW OR NO CLOUDS BELOW 12,000 FEET WITH NO
SIGNIFICANT WEATHER AND/OR OBSTRUCTIONS TO VISIBILITY.

* THESE STATIONS ARE NOT UNDER NWS QUALITY CONTROL. THEY ALSO MAY NOT
  REPORT WEATHER SUCH AS PRECIPITATION OR FOG.

ILZ001-002-007-009-015-016-024-221500-
NORTHWEST ILLINOIS

CITY           SKY/WX    TMP DP  RH WIND       PRES   REMARKS
MOLINE         LGT RAIN  56  52  86 NW7       29.95S
STERLING*      LGT RAIN  59  58  96 NW12        N/A
SAVANNA*       LGT RAIN  55  52  91 NW10      29.95R
$$

ILZ003-004-008-010-011-017-018-221500-
NORTH CENTRAL ILLINOIS

CITY           SKY/WX    TMP DP  RH WIND       PRES   REMARKS
ROCKFORD       RAIN      62  60  93 S10       29.91S FOG
FREEPORT*      DRIZZLE   55  55 100 NW8       29.94R
ROCHELLE*      LGT RAIN  61  60  97 S8        29.92R
DE KALB*       RAIN      63  60  93 SE9       29.94S
PERU*          LGT RAIN  62  61  96 SE6       29.92S
$$

ILZ005-006-012>014-019>023-221500-
NORTHEAST ILLINOIS

CITY           SKY/WX    TMP DP  RH WIND       PRES   REMARKS
CHICAGO-OHARE  CLOUDY    67  57  70 S21       29.94S
CHICAGO-MIDWAY PTSUNNY   68  58  70 S13G26    29.95S
AURORA         LGT RAIN  65  60  84 S8        29.95R
LANSING*       MOSUNNY   64  58  78 S16G22    29.98S
JOLIET*        CLOUDY    68  61  76 S10G20    29.95R
WAUKEGAN       CLOUDY    67  58  72 S14       29.93S
DUPAGE AIRPORT LGT RAIN  65  59  81 S14       29.94R
KANKAKEE*      CLOUDY    67  58  72 S14G21    29.98S
WHEELING       CLOUDY    68  59  73 S14G25    29.95S
MORRIS*        CLOUDY    65  59  82 S12       29.93R
ROMEOVILLE*    CLOUDY    67  59  75 S15G25    29.95S
NORTHERLY ISL    N/A     66  55  67 S13         N/A
$$

LMZ740>746-221500-
SOUTHERN LAKE MICHIGAN

STATION/POSITION SKY/WX   TEMP    WIND        PRES    VSBY  WAVE
                          AIR SEA DIR/SP/G                  HT/PER
                          (F)     (DEG/KT/KT) (MB)    (MI)  (FT/S)
SOUTHERN BUOY              63 61  150/ 21/ 23 1014.3R         4/ 5
WILMETTE HARBOR            62 58  160/ 14/ 19   N/A           3/ 4
HARRISON CRIB              65     180/ 20/ 21   N/A
BURNHAM HARBOR             67     190/ 14/ 16   N/A
CALUMET HARBOR             67     170/ 14/ 22 1013.9F
BURNS HARBOR               67     180/ 17/ 28 1015.6S
MICHIGAN CITY              65     150/ 14/ 19   N/A
MICHIGAN CITY 6N           64 58  180/ 17/ 25   N/A           2/ 3
ST. JOSEPH                 64 59  180/ 16/ 21 1016.3          2/ 3
$$

ILZ025>027-034>036-040-047-049-050-058-095>099-221500-
WEST-CENTRAL ILLINOIS

CITY           SKY/WX    TMP DP  RH WIND       PRES   REMARKS
QUINCY         LGT RAIN  54  52  93 N10       29.97R
MACOMB*        LGT RAIN  55  54  99 NW7       29.99R
JACKSONVILLE*  LGT RAIN  58  57  97 N9        29.93R
PITTSFIELD*    DRIZZLE   56  55  95 NW14      29.95F
$$

ILZ028>032-037-038-041>044-048-051>054-059>061-221500-
CENTRAL ILLINOIS

CITY           SKY/WX    TMP DP  RH WIND       PRES   REMARKS
PONTIAC        CLOUDY    67  63  87 S21G26    29.95R
BLOOMINGTON    CLOUDY    64  61  90 S20       29.95R
DECATUR        CLOUDY    67  60  78 S17G26    29.96R
PEORIA         CLOUDY    62  62 100 NW5       29.93R FOG
LACON*         RAIN      63  63 100 S5        29.91F
LINCOLN*       CLOUDY    68  63  83 S15       29.93R
SPRINGFIELD    CLOUDY    70  63  78 S14       29.92R
TAYLORVILLE    CLOUDY    67  62  83 S15G21    29.95R
$$

ILZ033-039-045-046-055>057-062-063-221500-
EAST-CENTRAL ILLINOIS

CITY           SKY/WX    TMP DP  RH WIND       PRES   REMARKS
CHAMPAIGN      CLOUDY    68  58  70 S21       29.99R
DANVILLE*      MOSUNNY   65  56  72 S15G24    29.99S
RANTOUL*       CLOUDY    67  60  78 S14G24    29.99S
MATTOON        PTSUNNY   66  60  81 S15G25    30.00R
PARIS*         CLOUDY    67  59  73 S20G25    30.04S
$$

ILZ079-100>102-221500-
SOUTHWEST ILLINOIS

CITY           SKY/WX    TMP DP  RH WIND       PRES   REMARKS
ALTON          CLOUDY    70  64  83 S16G23    29.92R
BELLEVILLE     CLOUDY    70  64  82 S20G31    29.95
CAHOKIA*       CLOUDY    68  64  87 W8        29.92R
SPARTA*        CLOUDY    70  63  78 S13G26    29.96S
$$

ILZ064>066-069>071-074>076-080>082-084>086-088>090-092>094-221500-
SOUTH-CENTRAL ILLINOIS

CITY           SKY/WX    TMP DP  RH WIND       PRES   REMARKS
CARBONDALE     CLOUDY    67  64  90 S15G22    29.99R
CAIRO*         MOSUNNY   68  63  84 SE14      30.01R
EFFINGHAM*     CLOUDY    66  61  84 SE10G17   30.02R
MARION         PTSUNNY   66  66 100 S12G18    30.01S
MT. VERNON     CLOUDY    66  63  90 S13       30.01R
CENTRALIA*     CLOUDY    67  65  93 SE15      29.98S
SALEM*         LGT RAIN  67  63  87 SE9G17    29.98F
METROPOLIS*    MOSUNNY   67  63  87 SE7       30.04S
$$

ILZ067-068-072-073-078-083-087-091-221500-
SOUTHEAST ILLINOIS

CITY           SKY/WX    TMP DP  RH WIND       PRES   REMARKS
LAWRENCEVILLE  CLOUDY    67  56  67 S18G28    30.07R
FLORA*         CLOUDY    67  62  84 S16       30.03R
FAIRFIELD*     CLOUDY    66  61  82 SE8       30.04R
HARRISBURG*    RAIN      65  63  94 S13G18    30.05R
ROBINSON*      LGT RAIN  65  58  76 S16       30.07R
CARMI*         LGT RAIN  64  61  90 SE10      30.06R
$$

ABBREVIATIONS USED IN REMARKS
   TC - TEMPERATURE IN CELSIUS
  WCI - WIND CHILL INDEX
   HX - HEAT INDEX
  VSB - VISIBILITY
$$





USA.gov is the U.S. government's official web portal to all federal, state and local government web resources and services.